Hourly Data Report for August 29, 2019

QUALICUM BEACH AIRPORT
BRITISH COLUMBIA
Current Station Operator: ECCC - MSC

49°20'14.000" N
124°23'38.000" W
58.20 m
1026562
71766
VOQ

Download Data

Hourly Data (August 2019)
Hourly Data Report for August 29, 2019
TIME
LST
Temp Definition
°C
Dew Point Definition
°C
Rel Hum Definition
%
Precip. Amount Definition
mm

Wind Dir Definition
10's deg

Wind Spd Definition
km/h
Visibility Definition
km
Stn Press Definition
kPa
Hmdx Definition


Wind Chill Definition


Weather Definition


00:00 16.1 12.5 79 0.0 24 3   100.49     LegendNANA
01:00 15.4 12.1 81 0.0 27 2   100.51     LegendNANA
02:00 14.4 12.0 86 0.0 26 1   100.51     LegendNANA
03:00 13.9 11.4 85 0.0 28 3   100.52     LegendNANA
04:00 12.4 10.3 87 0.0 24 1   100.54     LegendNANA
05:00 12.4 10.1 86 0.0 26 2   100.56     LegendNANA
06:00 11.3 9.3 88 0.0 24 1   100.61     LegendNANA
07:00 15.0 10.9 76 0.0   0   100.64     LegendNANA
08:00 19.5 11.3 59 0.0 35 4   100.66     LegendNANA
09:00 20.6 12.4 60 0.0 5 6   100.66     LegendNANA
10:00 19.9 13.3 66 0.0 5 6   100.68     LegendNANA
11:00 23.5 12.6 51 0.0 4 5   100.67 26   LegendNANA
12:00 22.1 12.2 54 0.0 6 7   100.65     LegendNANA
13:00 22.3 13.9 59 0.0 10 12   100.63 26   LegendNANA
14:00 22.9 14.9 61 0.0 8 10   100.62 27   LegendNANA
15:00 22.4 15.9 67 0.0 10 9   100.60 27   LegendNANA
16:00 20.9 15.9 73 0.0 10 8   100.57 25   LegendNANA
17:00 21.3 14.8 66 0.0 10 7   100.57 25   LegendNANA
18:00 21.2 15.6 71 0.0 32 4   100.58 26   LegendNANA
19:00 19.8 15.3 75 0.0 31 9   100.62     LegendNANA
20:00 18.4 15.2 82 0.0 35 2   100.68     LegendNANA
21:00 17.8 15.3 85 0.0 16 2   100.73     LegendNANA
22:00 17.1 15.0 87 0.0 31 2   100.75     LegendNANA
23:00 16.0 14.4 90 0.0 23 5   100.79     LegendNANA

Notes on Data Quality.

Legend

  • E = Estimated
  • M = Missing
  • NA = Not Available*
  • [empty] = Indicates an unobserved value
Date modified: